Change the Weather History Date:

Sunday, January 15, 2012

  Actual Average Record
Temperature  
Mean Temperature 52 °F -  
Max Temperature 66 °F 59 °F 77 °F (2013)
Min Temperature 37 °F 40 °F 27 °F (2011)
Degree Days  
Heating Degree Days 14    
Growing Degree Days 2 (Base 50)    
Moisture  
Dew Point 35 °F    
Average Humidity 64    
Maximum Humidity 93    
Minimum Humidity 27    
Precipitation  
Precipitation 0.00 in - - ()
Sea Level Pressure  
Sea Level Pressure 30.39 in    
Wind  
Wind Speed 5 mph (NW)    
Max Wind Speed 8 mph    
Max Gust Speed -    
Visibility 10 miles    
Events      
Averages and records for this station are not official NWS values.
T = Trace of Precipitation, MM = Missing Value Source: NWS Daily Summary

Daily Weather History Graph

Daily Weather History Graph

Search for Another Location

Airport or City:

Trip Planner

Search our weather history database for the weather conditions in past years. The results will help you decide how hot, cold, wet, or windy it might be!

Date:

Astronomy

Jan. 15, 2012 Rise Set
Actual Time 6:46 AM CST 5:08 PM CST
Civil Twilight 6:20 AM CST 5:34 PM CST
Nautical Twilight 5:50 AM CST 6:04 PM CST
Astronomical Twilight 5:21 AM CST 6:33 PM CST
Moon No Moon Rise 10:36 AM CST (1/15)
Length of Visible Light 11h 14m
Length of Day
10h 22m
Waning Gibbous, 57% of the Moon is Illuminated
Jan 15
Waning Gibbous
Jan 16
Last Quarter
Jan 23
New
Jan 30
First Quarter
Feb 7
Full

Hourly Weather History & Observations

Time (CST) Temp. Windchill Dew Point Humidity Pressure Visibility Wind Dir Wind Speed Gust Speed Precip Events Conditions
12:56 AM 46.0 °F 42.5 °F 37.0 °F 71% 30.32 in 10.0 mi West 6.9 mph - N/A   Clear
1:56 AM 45.0 °F 41.2 °F 37.9 °F 76% 30.32 in 10.0 mi West 6.9 mph - N/A   Clear
2:56 AM 41.0 °F 37.1 °F 36.0 °F 82% 30.33 in 10.0 mi WNW 5.8 mph - N/A   Clear
3:56 AM 39.9 °F 35.8 °F 36.0 °F 86% 30.34 in 10.0 mi West 5.8 mph - N/A   Clear
4:56 AM 39.0 °F 35.7 °F 34.0 °F 82% 30.36 in 10.0 mi WNW 4.6 mph - N/A   Clear
5:56 AM 39.0 °F 35.7 °F 34.0 °F 82% 30.38 in 10.0 mi NW 4.6 mph - N/A   Clear
6:56 AM 37.9 °F 34.4 °F 34.0 °F 86% 30.40 in 10.0 mi NNW 4.6 mph - N/A   Clear
7:56 AM 45.0 °F - 36.0 °F 71% 30.43 in 10.0 mi Calm Calm - N/A   Clear
8:56 AM 50.0 °F - 33.1 °F 52% 30.45 in 10.0 mi NNE 6.9 mph - N/A   Clear
9:56 AM 55.0 °F - 32.0 °F 42% 30.46 in 8.0 mi NE 5.8 mph - N/A   Clear
10:56 AM 59.0 °F - 33.1 °F 38% 30.45 in 10.0 mi Variable 3.5 mph - N/A   Clear
11:56 AM 63.0 °F - 32.0 °F 31% 30.42 in 10.0 mi NNW 3.5 mph - N/A   Clear
12:56 PM 66.0 °F - 32.0 °F 28% 30.40 in 10.0 mi Variable 5.8 mph - N/A   Clear
1:56 PM 66.0 °F - 30.9 °F 27% 30.38 in 10.0 mi Variable 3.5 mph - N/A   Clear
2:56 PM 66.0 °F - 30.9 °F 27% 30.38 in 10.0 mi Calm Calm - N/A   Clear
3:56 PM 66.0 °F - 32.0 °F 28% 30.38 in 10.0 mi East 4.6 mph - N/A   Mostly Cloudy
4:56 PM 57.0 °F - 39.0 °F 51% 30.39 in 10.0 mi South 8.1 mph - N/A   Mostly Cloudy
5:56 PM 52.0 °F - 39.0 °F 61% 30.38 in 10.0 mi South 3.5 mph - N/A   Mostly Cloudy
6:56 PM 50.0 °F - 37.9 °F 63% 30.39 in 10.0 mi Calm Calm - N/A   Scattered Clouds
7:56 PM 46.9 °F - 39.0 °F 74% 30.40 in 10.0 mi Calm Calm - N/A   Scattered Clouds
8:56 PM 39.0 °F - 37.0 °F 93% 30.40 in 10.0 mi Calm Calm - N/A   Clear
9:56 PM 37.9 °F - 35.1 °F 89% 30.40 in 10.0 mi Calm Calm - N/A   Clear
10:56 PM 37.9 °F - 36.0 °F 93% 30.39 in 10.0 mi Calm Calm - N/A   Clear
11:56 PM 39.0 °F 34.8 °F 37.0 °F 93% 30.38 in 10.0 mi ESE 5.8 mph - N/A   Clear